TimeCST,TemperatureF,Dew PointF,Humidity,Sea Level PressureIn,VisibilityMPH,Wind Direction,Wind SpeedMPH,Gust SpeedMPH,PrecipitationIn,Events,Conditions,WindDirDegrees,DateUTC
12:56 AM,30.9,27.0,85,30.11,9.0,North,19.6,25.3,N/A,,Overcast,350,2013-11-21 06:56:00
1:56 AM,30.0,26.1,85,30.14,10.0,North,16.1,26.5,N/A,,Overcast,360,2013-11-21 07:56:00
2:09 AM,28.9,25.0,85,30.12,10.0,North,17.3,-,N/A,,Overcast,350,2013-11-21 08:09:00
2:56 AM,28.0,23.0,81,30.18,10.0,NNW,18.4,27.6,N/A,,Overcast,340,2013-11-21 08:56:00
3:27 AM,28.0,21.9,78,30.16,10.0,NNW,15.0,28.8,N/A,,Overcast,340,2013-11-21 09:27:00
3:56 AM,26.1,19.9,78,30.21,10.0,NNW,21.9,29.9,N/A,,Overcast,340,2013-11-21 09:56:00
4:56 AM,24.1,17.1,75,30.26,10.0,NNW,17.3,-,N/A,,Overcast,340,2013-11-21 10:56:00
5:56 AM,23.0,15.1,72,30.29,10.0,NNW,20.7,-,N/A,,Overcast,340,2013-11-21 11:56:00
6:56 AM,21.9,12.9,68,30.33,10.0,North,19.6,34.5,N/A,,Overcast,350,2013-11-21 12:56:00
7:56 AM,21.0,12.9,71,30.35,10.0,North,19.6,29.9,N/A,,Overcast,350,2013-11-21 13:56:00
8:56 AM,21.0,10.9,65,30.40,10.0,North,19.6,31.1,N/A,,Overcast,10,2013-11-21 14:56:00
9:52 AM,21.2,10.4,63,30.37,9.0,North,21.9,27.6,0.00,Snow,Light Snow,350,2013-11-21 15:52:00
9:56 AM,21.0,10.9,65,30.43,5.0,North,20.7,27.6,0.00,Snow,Light Snow,360,2013-11-21 15:56:00
10:56 AM,21.0,12.0,68,30.44,5.0,North,23.0,29.9,0.00,Snow,Light Snow,360,2013-11-21 16:56:00
11:56 AM,23.0,12.0,63,30.44,9.0,North,21.9,29.9,0.00,,Overcast,360,2013-11-21 17:56:00
12:56 PM,24.1,12.9,62,30.44,10.0,North,27.6,34.5,N/A,,Overcast,350,2013-11-21 18:56:00
1:56 PM,21.9,14.0,72,30.46,9.0,North,20.7,26.5,0.00,Snow,Light Snow,350,2013-11-21 19:56:00
2:56 PM,21.0,14.0,74,30.48,9.0,North,19.6,28.8,0.00,Snow,Light Snow,350,2013-11-21 20:56:00
3:40 PM,19.9,14.0,78,30.43,1.8,North,23.0,29.9,0.00,Snow,Light Snow,350,2013-11-21 21:40:00
3:56 PM,19.9,14.0,78,30.51,1.8,North,21.9,32.2,0.00,Snow,Light Snow,350,2013-11-21 21:56:00
4:10 PM,19.9,15.1,81,30.45,2.0,North,16.1,23.0,0.00,Snow,Light Snow,350,2013-11-21 22:10:00
4:19 PM,19.9,14.0,78,30.45,2.0,North,18.4,27.6,0.00,Snow,Light Snow,350,2013-11-21 22:19:00
4:21 PM,19.9,14.0,78,30.45,1.5,North,21.9,27.6,0.00,Snow,Light Snow,350,2013-11-21 22:21:00
4:42 PM,19.9,16.0,85,30.46,0.8,North,16.1,-,0.00,Snow,Light Snow,350,2013-11-21 22:42:00
4:56 PM,19.0,16.0,88,30.54,0.8,North,20.7,26.5,0.00,Snow,Light Snow,350,2013-11-21 22:56:00
5:30 PM,19.0,15.1,85,30.47,1.5,North,17.3,25.3,0.01,Snow,Light Snow,350,2013-11-21 23:30:00
5:56 PM,19.0,15.1,85,30.56,1.5,North,16.1,-,0.01,Snow,Light Snow,350,2013-11-21 23:56:00
6:05 PM,19.0,15.1,85,30.49,1.5,North,18.4,26.5,0.01,Snow,Light Snow,350,2013-11-22 00:05:00
6:10 PM,19.0,14.0,81,30.49,1.5,NNW,18.4,27.6,0.01,Snow,Light Snow,340,2013-11-22 00:10:00
6:56 PM,19.0,14.0,81,30.59,4.0,North,15.0,-,0.01,Snow,Light Snow,350,2013-11-22 00:56:00
7:56 PM,19.0,10.9,71,30.61,9.0,North,21.9,29.9,0.00,Snow,Light Snow,350,2013-11-22 01:56:00
8:56 PM,18.0,10.0,71,30.63,10.0,North,16.1,26.5,0.00,,Overcast,350,2013-11-22 02:56:00
9:56 PM,18.0,10.0,71,30.66,10.0,NNW,16.1,21.9,N/A,,Overcast,330,2013-11-22 03:56:00
10:56 PM,16.0,9.0,74,30.67,10.0,NNW,12.7,-,N/A,,Mostly Cloudy,340,2013-11-22 04:56:00
11:56 PM,16.0,8.1,71,30.69,10.0,NNW,10.4,-,N/A,,Mostly Cloudy,330,2013-11-22 05:56:00